Location: Avebury
(53.1487°N, 106.9774°W)
Time: 13:40:13
(UTC+00:00)

Envisat - Pass Details

Date: 27 January 2022
Orbit: 764 x 765 km, 98.2° (Epoch: 22 May)

Event Time Altitude Azimuth Distance (km) Brightness Sun altitude
Rises 10:20:13 0° 30° (NNE) 3,243 6.9 -41.0°
Reaches altitude 10° 10:24:37 10° 66° (ENE) 2,310 6.1 -40.4°
Maximum altitude 10:25:57 11° 82° (E) 2,241 6.0 -40.2°
Drops below altitude 10° 10:27:21 10° 98° (E) 2,311 6.0 -40.0°
Sets 10:31:39 0° 133° (SE) 3,224 6.5 -39.4°
